Vertical_Velocity
-5 -3 -1 -4 -6 -6 -5 -5 7 -3 -4 -5 -3 -1 1 -2 12 9 1 3 1 8 -2 2 6 -5 -1 1 -2 -4 -1 1 2 4 1 1 5 7 -3 1 5 2 1 20
-3 -5 -1 -3 -4 -10 -9 -7 12 -5 4 -8 6 3 5 -7 9 26 4 -2 1 4 13 3 -0 -2 3 4 -1 -1 2 0 5 1 2 0 -2 0 2 3 5 -2 -1 15
-3 -4 -6 -3 -3 -5 -5 -7 1 -2 8 10 6 8 7 3 5 17 2 3 1 4 19 2 4 9 -0 3 -1 -2 -2 1 1 3 1 2 -1 -3 -0 4 1 4 -2 5
-4 -3 0 -4 -3 -3 -2 -3 6 -6 5 -1 0 0 4 4 3 10 -1 5 2 8 -1 6 -2 2 -3 -3 -3 -1 -0 2 -1 4 5 -3 -4 9 -3 -9 11 -6 6 -3
-2 0 7 -6 0 -4 -3 2 -4 -2 2 0 2 0 12 14 1 6 -0 -3 -0 -1 -1 -13 -1 4 2 -4 1 2 7 3 -3 3 4 -1 -2 -1 -5 -0 -2 -1 -0 1
-4 -3 -3 -0 -3 -2 -1 4 -4 -1 1 -1 1 4 2 -3 -8 13 20 5 -4 -1 -3 -3 1 4 0 3 -4 0 2 1 -1 4 -1 0 -3 5 3 8 13 11 1 13
-1 -2 -1 -0 -2 -3 1 -3 -3 2 3 1 -1 2 1 -2 -7 -14 6 8 20 3 0 3 -0 0 2 -3 1 -1 1 1 0 4 -0 -6 10 5 -8 1 -3 -2 2 7
-1 -0 1 0 -1 -4 6 -4 -2 -1 5 2 1 3 2 -0 -3 3 1 -4 -5 26 -1 0 1 0 -1 4 0 -2 3 -4 2 -6 -2 9 6 1 -10 -7 -8 -0 8 2
-2 -1 -0 -1 -1 -3 2 -2 -2 -4 2 3 -2 -3 -3 -2 0 2 -6 2 6 10 6 2 1 -3 3 0 3 -0 -5 -4 -7 -3 -4 -5 6 2 -2 -3 -4 -2 1 -4
-1 -1 -1 -1 -1 -3 -0 -1 -2 -4 0 2 -4 3 -7 -1 -5 7 3 -2 0 -1 10 3 1 1 -1 2 3 -7 -5 -4 1 -2 -9 2 10 1 4 -2 -5 -5 -2 -7
-2 -1 2 1 -3 -3 -2 -2 -2 -5 0 9 -5 -4 -8 -5 -3 4 10 15 23 -3 -3 -1 -1 0 -3 -0 0 -1 0 -5 -3 -5 -8 -1 -5 11 1 22 -3 8 -9 2
-1 -2 -2 -2 -5 -3 -1 3 -3 -3 -7 8 -4 -7 -2 4 3 5 -3 0 -6 13 -2 -1 -2 1 -2 0 -2 4 14 1 -2 -2 -0 -4 -12 -1 -1 5 5 5 24 13
-0 -0 -1 0 3 4 -2 3 -5 -3 -1 4 -3 13 -3 -6 1 -11 6 5 16 19 -2 -3 -5 2 -3 -5 -2 2 9 1 20 -2 -1 4 2 1 6 4 8 3 2 -1
0 0 3 4 7 2 17 6 -1 -2 2 -5 1 -6 -1 -3 3 -0 -1 6 10 2 -3 -1 -1 -2 1 4 11 3 1 -0 -0 -3 -0 -1 -4 1 3 2 0 2 -0 -2
-1 0 5 6 3 11 8 1 1 -2 -5 -1 -3 -3 -7 -0 -4 -4 -5 2 -0 2 -1 -2 -2 9 12 1 6 3 2 -0 -1 -6 3 13 31 -4 -0 52 13 3 4 -2
-1 1 1 5 1 -1 -1 1 -1 -2 -2 -2 -3 -2 -6 -5 -3 -0 2 -3 -3 -3 -2 3 8 17 27 18 5 -3 5 5 8 -3 -2 10 26 9 -2 1 21 17 7 3
1 -0 2 -1 -2 -1 -0 0 1 -2 -2 -2 -1 -2 0 2 -1 -4 -2 -2 1 -0 -3 2 1 -0 4 6 3 2 2 6 6 8 7 12 9 6 15 6 3 -4 6 1
1 1 -0 -2 -4 -7 -6 -7 -4 -2 -3 -0 3 3 2 3 -1 -2 -1 -0 -1 -1 1 3 -2 -1 -0 1 1 1 1 -4 -1 -3 -3 -4 -4 -6 -4 -6 -4 -0 2 3
-0 1 -1 1 -3 -3 -1 -2 -4 -4 -1 4 2 5 5 14 18 6 2 -1 -2 -2 2 -2 -1 0 1 2 4 3 -3 -3 1 2 2 -2 -5 -4 2 3 1 -1 -5 -7
1 6 2 -0 -1 -2 -2 -1 -5 -3 -1 8 7 -1 1 8 6 4 1 -1 -0 -1 -3 -1 -1 3 -2 -2 -0 0 -3 -4 -1 -4 3 3 -5 -6 -3 -2 0 1 0 -0
-1 -3 -4 -2 -1 1 2 -0 -5 -3 3 4 1 1 -1 -3 3 6 3 -1 -3 -3 -3 -2 -1 3 -0 -4 -6 -11 -4 7 4 0 -0 7 -0 -2 -3 -2 -2 -3 -3 -2
2 4 4 2 -0 -1 -4 -8 -2 -2 -5 1 2 3 1 0 -2 -1 -1 2 2 1 0 0 4 1 -0 -2 -2 -2 -1 -4 -8 -8 -7 -6 -3 1 4 5 5 4 4 3
0 -2 1 2 1 -2 0 1 4 3 1 0 -0 -1 -0 2 2 -0 -1 2 -1 -1 -4 -1 2 0 1 1 1 -0 0 1 0 0 1 -0 -2 -3 -3 -3 -3 -3 -4 -4
1 -1 0 -3 -3 1 5 6 1 -3 -1 1 -0 -0 -2 0 -1 -2 -2 -1 -2 -2 2 0 -3 -1 1 -0 -0 -1 -0 -0 1 1 0 -1 -2 -1 -2 -2 -2 -2 -3 -3
-1 -1 -3 -1 1 0 0 1 -2 -2 -2 -0 -0 1 0 -0 0 -1 2 0 -1 4 0 1 -1 -2 -1 -1 -2 -1 -2 -2 -2 -2 -2 -2 -2 -2 -2 -1 -1 -2 -1 -1
-1 1 1 3 3 0 1 1 1 1 1 1 -0 -1 -1 -3 -3 -1 -1 -1 7 -0 -3 -1 -2 -1 0 0 0 0 -1 -1 -0 0 0 1 1 1 2 1 1 0 1 1
-1 1 -0 -0 -2 -3 -2 -3 -3 -2 -2 -1 -1 -2 -1 1 1 2 2 1 -2 -0 2 -0 0 -1 -0 -0 1 1 2 3 2 1 1 2 2 2 2 2 1 2 1 1
Height
5543 5539 5536 5531 5528 5526 5524 5523 5522 5512 5510 5515 5516 5521 5526 5530 5534 5533 5538 5547 5553 5559 5562 5566 5569 5572 5575 5580 5585 5588 5590 5594 5595 5597 5597 5600 5603 5607 5609 5613 5619 5625 5629 5635
5528 5524 5520 5516 5511 5506 5503 5501 5498 5488 5491 5491 5500 5504 5509 5512 5519 5522 5526 5533 5539 5547 5555 5558 5561 5565 5569 5574 5579 5582 5584 5589 5591 5593 5595 5595 5598 5601 5605 5607 5612 5618 5626 5632
5513 5509 5505 5500 5495 5487 5483 5480 5480 5477 5478 5483 5488 5493 5498 5503 5505 5510 5514 5523 5529 5536 5546 5549 5555 5557 5561 5566 5570 5574 5577 5581 5585 5588 5589 5591 5594 5595 5599 5602 5605 5611 5618 5626
5500 5495 5489 5484 5478 5476 5475 5472 5472 5471 5473 5476 5479 5485 5492 5495 5498 5501 5505 5514 5520 5528 5533 5540 5545 5548 5554 5557 5562 5565 5569 5575 5578 5580 5583 5583 5588 5591 5594 5596 5600 5601 5611 5617
5485 5480 5472 5466 5467 5466 5466 5466 5466 5466 5470 5472 5475 5479 5485 5488 5492 5496 5499 5505 5511 5516 5523 5530 5537 5541 5547 5551 5556 5559 5563 5568 5571 5574 5577 5578 5581 5585 5587 5590 5593 5595 5602 5608
5471 5466 5462 5460 5458 5457 5458 5460 5461 5462 5466 5469 5472 5476 5478 5482 5487 5490 5495 5503 5507 5512 5518 5524 5531 5534 5539 5545 5549 5552 5556 5561 5564 5567 5570 5573 5578 5581 5582 5584 5588 5591 5594 5602
5459 5456 5454 5453 5451 5452 5453 5454 5455 5457 5462 5464 5467 5471 5475 5478 5481 5485 5489 5493 5499 5505 5511 5518 5522 5527 5531 5537 5543 5546 5549 5552 5556 5562 5564 5567 5572 5574 5574 5575 5577 5581 5585 5590
5449 5447 5446 5446 5445 5445 5446 5448 5449 5451 5455 5458 5463 5466 5471 5475 5480 5483 5488 5492 5497 5501 5506 5512 5517 5521 5526 5532 5536 5539 5543 5546 5550 5554 5557 5562 5566 5568 5568 5570 5572 5577 5582 5583
5440 5439 5438 5439 5439 5439 5440 5442 5443 5445 5449 5454 5457 5462 5467 5472 5478 5481 5484 5489 5494 5498 5502 5507 5512 5517 5522 5526 5531 5533 5536 5539 5544 5548 5550 5553 5561 5562 5563 5566 5568 5571 5575 5580
5434 5433 5433 5434 5434 5434 5435 5437 5437 5439 5443 5447 5450 5456 5461 5467 5473 5477 5481 5486 5491 5494 5498 5504 5508 5514 5518 5521 5525 5529 5531 5533 5538 5541 5543 5547 5553 5555 5560 5563 5568 5565 5572 5575
5430 5430 5430 5430 5429 5430 5431 5431 5432 5434 5437 5441 5444 5449 5454 5460 5466 5472 5478 5484 5488 5492 5496 5501 5506 5510 5514 5518 5522 5525 5528 5530 5532 5535 5536 5540 5544 5550 5554 5559 5560 5567 5567 5572
5427 5426 5426 5426 5424 5425 5426 5427 5427 5429 5431 5436 5439 5443 5449 5455 5461 5470 5475 5481 5486 5490 5492 5496 5502 5507 5511 5515 5518 5522 5526 5527 5529 5531 5531 5532 5538 5544 5548 5553 5555 5560 5566 5568
5422 5422 5422 5421 5421 5421 5421 5423 5422 5423 5426 5431 5435 5441 5443 5450 5460 5466 5474 5478 5479 5482 5487 5493 5498 5504 5509 5512 5515 5517 5520 5522 5523 5527 5527 5529 5532 5537 5542 5547 5550 5552 5554 5557
5416 5416 5416 5417 5417 5418 5418 5419 5418 5419 5423 5427 5433 5437 5444 5450 5457 5464 5470 5474 5477 5481 5486 5491 5497 5503 5507 5511 5512 5515 5516 5518 5520 5522 5524 5525 5528 5531 5535 5540 5542 5544 5547 5550
5410 5410 5411 5411 5411 5413 5414 5414 5415 5416 5421 5425 5431 5438 5444 5450 5457 5462 5467 5472 5475 5480 5485 5490 5496 5500 5504 5506 5508 5510 5511 5513 5517 5518 5520 5521 5524 5527 5530 5533 5536 5537 5541 5544
5405 5405 5405 5405 5405 5407 5410 5412 5415 5418 5422 5427 5433 5439 5443 5449 5456 5461 5466 5470 5474 5480 5483 5488 5492 5495 5497 5501 5505 5507 5509 5510 5512 5514 5515 5517 5517 5521 5523 5527 5529 5530 5533 5535
5401 5401 5401 5402 5403 5405 5409 5415 5418 5421 5425 5429 5435 5440 5446 5452 5457 5461 5466 5470 5475 5479 5482 5487 5490 5492 5495 5499 5502 5504 5506 5507 5509 5510 5510 5512 5513 5517 5519 5520 5522 5524 5528 5528
5398 5399 5400 5401 5402 5405 5410 5414 5419 5423 5427 5432 5437 5442 5447 5452 5457 5461 5465 5469 5473 5478 5482 5486 5488 5491 5493 5496 5497 5499 5502 5504 5506 5507 5507 5508 5510 5512 5513 5516 5517 5519 5521 5521
5396 5398 5400 5401 5405 5409 5414 5418 5422 5426 5432 5435 5440 5444 5449 5453 5459 5462 5466 5469 5473 5477 5480 5483 5486 5488 5490 5492 5494 5495 5497 5500 5502 5503 5502 5502 5503 5505 5507 5509 5510 5511 5513 5514
5395 5399 5402 5404 5407 5412 5416 5422 5425 5430 5434 5439 5443 5446 5450 5454 5459 5462 5465 5467 5471 5475 5478 5480 5482 5485 5487 5488 5489 5491 5492 5492 5494 5496 5497 5497 5497 5498 5498 5500 5502 5503 5503 5502
5394 5398 5401 5406 5410 5414 5419 5424 5428 5433 5437 5441 5445 5448 5450 5454 5459 5463 5465 5468 5470 5473 5477 5478 5479 5482 5484 5485 5486 5487 5486 5486 5486 5486 5488 5489 5490 5490 5491 5491 5491 5492 5492 5491
5396 5401 5406 5409 5413 5417 5422 5426 5432 5436 5440 5444 5447 5450 5453 5455 5457 5461 5465 5467 5469 5471 5473 5473 5476 5478 5478 5479 5480 5480 5481 5482 5483 5483 5483 5483 5483 5483 5483 5483 5483 5482 5482 5481
5399 5403 5408 5413 5417 5420 5424 5429 5435 5439 5443 5447 5449 5452 5454 5457 5459 5461 5463 5466 5468 5470 5471 5472 5473 5473 5473 5474 5475 5474 5474 5474 5475 5475 5475 5475 5475 5475 5475 5475 5475 5474 5473 5472
5403 5407 5411 5415 5420 5425 5429 5434 5438 5441 5444 5447 5449 5453 5455 5457 5459 5461 5462 5465 5466 5468 5469 5469 5469 5471 5471 5471 5471 5470 5470 5469 5469 5469 5469 5468 5468 5467 5466 5466 5466 5465 5464 5463
5408 5413 5417 5420 5424 5427 5431 5434 5438 5441 5444 5447 5450 5453 5455 5457 5458 5459 5461 5464 5466 5467 5467 5468 5468 5468 5468 5467 5467 5466 5465 5464 5463 5462 5461 5459 5458 5458 5457 5456 5455 5454 5453 5451
5412 5417 5421 5424 5427 5430 5433 5437 5440 5443 5445 5448 5451 5453 5455 5456 5457 5459 5460 5462 5464 5464 5465 5465 5465 5464 5463 5463 5462 5461 5460 5458 5457 5456 5454 5453 5452 5450 5449 5447 5445 5443 5441 5438
5416 5420 5424 5428 5431 5433 5436 5439 5442 5444 5447 5448 5450 5452 5453 5455 5456 5457 5458 5459 5460 5462 5462 5461 5460 5460 5459 5458 5457 5455 5454 5452 5451 5449 5447 5445 5443 5441 5439 5437 5435 5432 5429 5427